• en Suisse
  • Liste des pays
  • À 7 jours
  • Température de l'eau
  • Carte satellitaire
  • Carte météo
  • Widgets météo
  • user-avatar
    Se connecter

    Météo par heure à Seredyna

    Ce jour, 20 Septembre, Jeudi

    Heure Température Précipitation Vent Pression Humidité
    00:00 +16°C° 0 mm 2 m/s 741 mmHg 78%
    01:00 +16°C° 0 mm 2 m/s 741 mmHg 79%
    02:00 +16°C° 0 mm 2 m/s 741 mmHg 80%
    03:00 +15°C° 0 mm 1 m/s 741 mmHg 81%
    04:00 +15°C° 0 mm 1 m/s 741 mmHg 82%
    05:00 +15°C° 0 mm 1 m/s 741 mmHg 83%
    06:00 +15°C° 0 mm 1 m/s 741 mmHg 80%
    07:00 +16°C° 0 mm 1 m/s 741 mmHg 78%
    08:00 +18°C° 0 mm 1 m/s 742 mmHg 75%
    09:00 +20°C° 0 mm 1 m/s 742 mmHg 69%
    10:00 +22°C° 0 mm 1 m/s 742 mmHg 62%
    11:00 +24°C° 0 mm 1 m/s 742 mmHg 55%
    12:00 +25°C° 0 mm 1 m/s 742 mmHg 52%
    13:00 +26°C° 0 mm 1 m/s 742 mmHg 48%
    14:00 +27°C° 0 mm 1 m/s 741 mmHg 45%
    15:00 +26°C° 0 mm 1 m/s 741 mmHg 48%
    16:00 +24°C° 0 mm 0 m/s 741 mmHg 51%
    17:00 +24°C° 0 mm 0 m/s 741 mmHg 54%
    18:00 +22°C° 0 mm 0 m/s 741 mmHg 57%
    19:00 +22°C° 0 mm 1 m/s 740 mmHg 61%
    20:00 +20°C° 0 mm 1 m/s 740 mmHg 64%
    21:00 +19°C° 0 mm 1 m/s 740 mmHg 67%
    22:00 +19°C° 0 mm 1 m/s 740 mmHg 70%
    23:00 +18°C° 0 mm 1 m/s 740 mmHg 72%

    Demain, 21 Septembre, Vendredi

    Heure Température Précipitation Vent Pression Humidité
    00:00 +18°C° 0 mm 1 m/s 740 mmHg 75%
    01:00 +16°C° 0 mm 1 m/s 740 mmHg 77%
    02:00 +16°C° 0 mm 1 m/s 740 mmHg 80%
    03:00 +16°C° 0 mm 1 m/s 740 mmHg 82%
    04:00 +16°C° 0 mm 1 m/s 740 mmHg 84%
    05:00 +15°C° 0 mm 1 m/s 739 mmHg 86%
    06:00 +16°C° 0 mm 1 m/s 739 mmHg 83%
    07:00 +17°C° 0 mm 2 m/s 739 mmHg 80%
    08:00 +18°C° 0 mm 2 m/s 739 mmHg 78%
    09:00 +19°C° 0 mm 2 m/s 739 mmHg 71%
    10:00 +21°C° 0 mm 2 m/s 739 mmHg 64%
    11:00 +24°C° 0 mm 3 m/s 739 mmHg 57%
    12:00 +25°C° 0 mm 3 m/s 739 mmHg 54%
    13:00 +26°C° 0 mm 3 m/s 739 mmHg 51%
    14:00 +27°C° 0 mm 3 m/s 738 mmHg 48%
    15:00 +26°C° 0 mm 3 m/s 738 mmHg 51%
    16:00 +26°C° 0 mm 3 m/s 737 mmHg 54%
    17:00 +25°C° 0 mm 2 m/s 737 mmHg 57%
    18:00 +24°C° 0 mm 3 m/s 737 mmHg 61%
    19:00 +21°C° 0 mm 3 m/s 737 mmHg 64%
    20:00 +19°C° 0 mm 3 m/s 737 mmHg 67%
    21:00 +19°C° 0 mm 3 m/s 737 mmHg 67%
    22:00 +19°C° 0 mm 3 m/s 737 mmHg 66%
    23:00 +18°C° 0 mm 4 m/s 737 mmHg 65%

    Après-demain, 22 Septembre, Samedi

    Heure Température Précipitation Vent Pression Humidité
    00:00 +18°C° 0 mm 4 m/s 737 mmHg 65%
    01:00 +18°C° 0 mm 3 m/s 736 mmHg 64%
    02:00 +18°C° 0 mm 3 m/s 736 mmHg 63%
    03:00 +18°C° 0 mm 3 m/s 736 mmHg 62%
    04:00 +18°C° 0 mm 3 m/s 737 mmHg 60%
    05:00 +18°C° 0 mm 3 m/s 737 mmHg 58%
    06:00 +17°C° 0.1 mm 4 m/s 737 mmHg 64%
    07:00 +17°C° 0.1 mm 4 m/s 738 mmHg 70%
    08:00 +17°C° 0.1 mm 4 m/s 738 mmHg 76%
    09:00 +17°C° 0.2 mm 4 m/s 738 mmHg 74%
    10:00 +17°C° 0.2 mm 4 m/s 739 mmHg 72%
    11:00 +17°C° 0.2 mm 4 m/s 739 mmHg 71%
    12:00 +15°C° 0.2 mm 4 m/s 739 mmHg 73%
    13:00 +14°C° 0.2 mm 4 m/s 740 mmHg 76%
    14:00 +13°C° 0.2 mm 3 m/s 740 mmHg 79%
    15:00 +12°C° 1.2 mm 3 m/s 740 mmHg 83%
    16:00 +11°C° 1.2 mm 3 m/s 740 mmHg 86%
    17:00 +10°C° 1.2 mm 3 m/s 740 mmHg 90%
    18:00 +10°C° 1.7 mm 3 m/s 740 mmHg 91%
    19:00 +9°C° 1.7 mm 2 m/s 740 mmHg 92%
    20:00 +9°C° 1.7 mm 2 m/s 740 mmHg 93%
    21:00 +9°C° 0.3 mm 2 m/s 740 mmHg 93%
    22:00 +8°C° 0.3 mm 2 m/s 740 mmHg 94%
    23:00 +8°C° 0.3 mm 2 m/s 740 mmHg 94%

    23 Septembre, Dimanche

    Heure Température Précipitation Vent Pression Humidité
    00:00 +8°C° 0 mm 3 m/s 740 mmHg 94%
    01:00 +7°C° 0 mm 3 m/s 740 mmHg 93%
    02:00 +7°C° 0 mm 3 m/s 740 mmHg 93%
    03:00 +7°C° 0 mm 3 m/s 740 mmHg 92%
    04:00 +7°C° 0 mm 3 m/s 740 mmHg 92%
    05:00 +7°C° 0 mm 3 m/s 740 mmHg 92%
    06:00 +8°C° 0 mm 3 m/s 740 mmHg 90%
    07:00 +7°C° 0 mm 4 m/s 740 mmHg 88%
    08:00 +8°C° 0 mm 4 m/s 740 mmHg 86%
    09:00 +11°C° 0 mm 4 m/s 740 mmHg 77%
    10:00 +13°C° 0 mm 4 m/s 740 mmHg 69%
    11:00 +14°C° 0 mm 5 m/s 741 mmHg 61%
    12:00 +15°C° 0 mm 5 m/s 740 mmHg 57%
    13:00 +16°C° 0 mm 5 m/s 740 mmHg 54%
    14:00 +16°C° 0 mm 5 m/s 739 mmHg 50%
    15:00 +17°C° 0 mm 4 m/s 739 mmHg 54%
    16:00 +17°C° 0 mm 3 m/s 739 mmHg 57%
    17:00 +17°C° 0 mm 2 m/s 738 mmHg 60%
    18:00 +15°C° 0 mm 2 m/s 738 mmHg 62%
    19:00 +14°C° 0 mm 2 m/s 737 mmHg 65%
    20:00 +12°C° 0 mm 3 m/s 737 mmHg 67%
    21:00 +12°C° 0 mm 3 m/s 736 mmHg 66%
    22:00 +12°C° 0 mm 4 m/s 735 mmHg 65%
    23:00 +12°C° 0 mm 5 m/s 734 mmHg 64%

    24 Septembre, Lundi

    Heure Température Précipitation Vent Pression Humidité
    00:00 +13°C° 0.1 mm 5 m/s 733 mmHg 63%
    01:00 +13°C° 0.1 mm 5 m/s 732 mmHg 62%
    02:00 +13°C° 0.1 mm 5 m/s 730 mmHg 62%
    03:00 +13°C° 0 mm 6 m/s 729 mmHg 60%
    04:00 +14°C° 0 mm 6 m/s 728 mmHg 58%
    05:00 +14°C° 0 mm 6 m/s 726 mmHg 56%
    06:00 +14°C° 0.6 mm 6 m/s 726 mmHg 63%
    07:00 +14°C° 0.6 mm 6 m/s 725 mmHg 69%
    08:00 +14°C° 0.6 mm 5 m/s 724 mmHg 75%
    09:00 +14°C° 1.5 mm 5 m/s 724 mmHg 79%
    10:00 +14°C° 1.5 mm 6 m/s 724 mmHg 82%
    11:00 +13°C° 1.5 mm 6 m/s 724 mmHg 86%
    12:00 +12°C° 0.5 mm 7 m/s 724 mmHg 84%
    13:00 +12°C° 0.5 mm 8 m/s 724 mmHg 82%
    14:00 +12°C° 0.5 mm 9 m/s 724 mmHg 80%
    15:00 +11°C° 0.3 mm 10 m/s 725 mmHg 80%
    16:00 +9°C° 0.3 mm 10 m/s 725 mmHg 79%
    17:00 +8°C° 0.3 mm 11 m/s 726 mmHg 78%
    18:00 +8°C° 0.2 mm 11 m/s 726 mmHg 77%
    19:00 +8°C° 0.2 mm 11 m/s 727 mmHg 75%
    20:00 +8°C° 0.2 mm 12 m/s 727 mmHg 73%
    21:00 +8°C° 0.1 mm 11 m/s 728 mmHg 72%
    22:00 +8°C° 0.1 mm 11 m/s 728 mmHg 71%
    23:00 +8°C° 0.1 mm 11 m/s 729 mmHg 70%

    25 Septembre, Mardi

    Heure Température Précipitation Vent Pression Humidité
    00:00 +8°C° 0.2 mm 11 m/s 729 mmHg 72%
    01:00 +8°C° 0.2 mm 11 m/s 730 mmHg 74%
    02:00 +7°C° 0.2 mm 11 m/s 731 mmHg 77%
    03:00 +7°C° 0.1 mm 10 m/s 732 mmHg 75%
    04:00 +7°C° 0.1 mm 10 m/s 733 mmHg 73%
    05:00 +6°C° 0.1 mm 10 m/s 734 mmHg 71%
    06:00 +6°C° 0 mm 9 m/s 735 mmHg 71%
    07:00 +6°C° 0 mm 9 m/s 735 mmHg 70%
    08:00 +5°C° 0 mm 9 m/s 736 mmHg 69%
    09:00 +6°C° 0 mm 9 m/s 737 mmHg 65%
    10:00 +7°C° 0 mm 9 m/s 737 mmHg 61%
    11:00 +8°C° 0 mm 9 m/s 738 mmHg 57%
    12:00 +8°C° 0.2 mm 9 m/s 738 mmHg 55%
    13:00 +10°C° 0.2 mm 9 m/s 738 mmHg 54%
    14:00 +10°C° 0.2 mm 8 m/s 738 mmHg 53%
    15:00 +9°C° 0.2 mm 8 m/s 739 mmHg 55%
    16:00 +9°C° 0.2 mm 7 m/s 739 mmHg 57%
    17:00 +8°C° 0.2 mm 6 m/s 739 mmHg 59%
    18:00 +7°C° 0 mm 5 m/s 740 mmHg 62%
    19:00 +6°C° 0 mm 5 m/s 740 mmHg 65%
    20:00 +5°C° 0 mm 4 m/s 741 mmHg 68%
    21:00 +5°C° 0 mm 4 m/s 741 mmHg 68%
    22:00 +5°C° 0 mm 4 m/s 741 mmHg 68%
    23:00 +4°C° 0 mm 4 m/s 742 mmHg 68%
    Voir plus